{"data":{"norad_id":55839,"epoch":"2026-05-25T03:51:31.192416Z","epoch_age_seconds":60743,"freshness":"FRESH","line1":"1 55839U 23030D   26145.16077769  .00000354  00000+0  26413-3 0  9999","line2":"2 55839  99.0136 153.6734 0001535  72.7412 287.3921 14.01351264164163","mean_motion":14.01351264,"eccentricity":0.0001535,"inclination_deg":99.0136,"raan_deg":153.6734,"arg_perigee_deg":72.7412,"mean_anomaly_deg":287.3921,"bstar":0.00026413,"rev_number":16416,"period_min":102.75796204655,"perigee_km":888.00418660912,"apogee_km":890.23523441925,"semimajor_km":7267.2567105142,"source":"CELESTRAK","updated_at":"2026-05-25T13:37:59.210988Z"}}